This is the latest recevied weather packets stored in our database for station/object K5BOU. If no packets are shown the sender has not sent any weather packets the latest 10 day(s).
| Time | Temp. | Humidity | Pressure | Rain* | Wind** | Luminosity | Snow |
|---|---|---|---|---|---|---|---|
| 1777850134 | 25.56° C | 49% | 1015.8 hPa | 0 mm | - | 216 W/m² | - |
| 1777849830 | 25.56° C | 49% | 1015.9 hPa | 0 mm | - | 235 W/m² | - |
| 1777849527 | 26.11° C | 47% | 1015.9 hPa | 0 mm | - | 249 W/m² | - |
| 1777849224 | 26.67° C | 45% | 1015.9 hPa | 0 mm | - | 265 W/m² | - |
| 1777848921 | 26.11° C | 46% | 1015.9 hPa | 0 mm | - | 300 W/m² | - |
| 1777848616 | 26.11° C | 44% | 1015.9 hPa | 0 mm | - | 311 W/m² | - |
| 1777848314 | 26.11° C | 45% | 1015.8 hPa | 0 mm | - | 309 W/m² | - |
| 1777848011 | 26.67° C | 45% | 1016.3 hPa | 0 mm | - | 339 W/m² | - |
| 1777847709 | 27.22° C | 45% | 1016.4 hPa | 0 mm | - | 399 W/m² | - |
| 1777847404 | 27.22° C | 45% | 1016.2 hPa | 0 mm | - | 399 W/m² | - |
| 1777847103 | 27.22° C | 44% | 1016.2 hPa | 0 mm | - | 349 W/m² | - |
| 1777846801 | 27.22° C | 44% | 1016.4 hPa | 0 mm | - | 349 W/m² | - |
| 1777846499 | 26.67° C | 42% | 1016.7 hPa | 0 mm | - | 441 W/m² | - |
| 1777846196 | 26.67° C | 42% | 1016.6 hPa | 0 mm | - | 441 W/m² | - |
| 1777845892 | 26.11° C | 41% | 1016.6 hPa | 0 mm | - | 393 W/m² | - |
| 1777845589 | 26.67° C | 40% | 1016.5 hPa | 0 mm | - | 459 W/m² | - |
| 1777845285 | 26.67° C | 41% | 1016.5 hPa | 0 mm | - | 474 W/m² | - |
| 1777844983 | 26.67° C | 38% | 1016.6 hPa | 0 mm | - | 557 W/m² | - |
| 1777844681 | 26.67° C | 38% | 1016.5 hPa | 0 mm | - | 557 W/m² | - |
| 1777844378 | 27.22° C | 38% | 1016.8 hPa | 0 mm | - | 535 W/m² | - |
| 1777844076 | 27.22° C | 38% | 1016.7 hPa | 0 mm | - | 535 W/m² | - |
| 1777843772 | 27.22° C | 38% | 1017 hPa | 0 mm | - | 535 W/m² | - |
| 1777843470 | 27.22° C | 40% | 1017.1 hPa | 0 mm | - | 558 W/m² | - |
| 1777843167 | - | - | - | 0 mm | - | - | - |
| 1777842864 | 27.22° C | 43% | 1017.2 hPa | 0 mm | - | 684 W/m² | - |
* Rain latest hour (hover to see other rain measurements)
** Current wind speed in m/s (hover to see current wind gust speed)